Temp
63 63 63 62 62 62 62 62 62 62 62 62 61 61 61 61 62 62 62 62 61 61 61 62 63 65 80 88 93 101 85 87 99 101 100 101 98 98 92 95 96 90 92 94 95 95 94
63 63 62 62 62 62 61 61 62 61 61 60 60 60 61 61 61 61 61 61 61 61 62 63 65 64 82 83 107 108 107 104 105 103 102 104 100 100 96 95 93 95 93 94 96 95 96
62 62 62 62 62 61 61 61 61 61 61 60 60 60 60 61 61 61 61 60 60 61 62 63 65 78 87 92 108 110 108 106 107 106 101 106 105 99 99 94 99 96 89 92 93 94 93
62 62 62 62 61 61 61 61 61 60 60 60 60 60 61 60 61 61 60 59 60 61 63 64 66 82 85 107 110 106 108 106 108 109 106 107 106 100 96 100 96 90 91 80 90 92 94
62 62 62 62 61 61 60 60 60 60 60 60 60 60 60 60 60 60 59 59 60 63 65 67 78 85 89 93 99 106 108 102 105 106 106 107 102 96 97 90 85 89 79 80 85 93 91
62 62 61 61 61 60 60 60 60 60 60 60 60 60 60 60 60 59 58 58 67 64 72 86 89 85 93 95 103 105 109 107 101 101 98 97 95 89 91 88 74 78 81 84 82 89 90
62 62 61 61 60 60 60 60 60 60 60 60 60 59 59 60 59 58 63 80 81 80 87 89 92 92 98 105 107 102 106 102 101 96 87 94 86 82 89 92 90 87 84 82 87 92 87
61 61 61 60 60 60 60 59 59 59 60 60 59 59 59 59 59 59 65 84 95 98 87 93 97 99 102 104 93 99 106 93 92 85 91 89 82 91 94 93 89 86 83 82 88 91 89
61 61 60 60 60 60 59 59 59 59 59 59 58 58 58 59 59 61 80 91 104 103 88 93 98 96 98 101 95 96 100 96 91 87 88 85 90 94 91 88 85 85 83 83 83 88 90
61 60 60 60 60 59 59 59 59 59 59 58 58 58 58 58 57 87 85 97 102 103 79 86 91 96 100 99 92 105 104 97 92 86 89 89 95 91 87 85 88 81 92 89 84 81 74
60 60 60 60 59 59 59 58 58 58 58 58 58 58 57 54 68 89 99 105 105 98 65 89 92 107 101 93 96 96 105 98 87 89 89 86 88 87 84 87 91 85 92 87 86 81 81
60 60 60 60 60 59 58 58 58 58 58 58 57 57 58 63 72 87 103 103 98 76 68 85 93 90 90 93 95 97 95 100 99 91 91 89 97 93 91 93 92 93 88 87 86 83 71
60 60 60 60 59 59 58 58 58 58 57 56 56 55 58 79 92 103 103 95 77 71 92 84 86 90 89 88 90 91 88 86 83 78 80 87 89 94 95 87 92 89 83 72 69 70 65
60 60 60 59 59 58 58 58 58 57 56 55 54 53 61 77 91 100 96 84 69 85 88 95 92 90 85 90 90 89 87 84 90 89 84 80 76 89 94 89 85 86 85 74 63 65 70
60 60 59 59 59 58 58 58 58 57 56 54 52 71 84 93 90 97 88 75 78 87 93 89 91 85 85 90 89 89 87 87 91 91 79 79 80 93 93 94 92 85 80 91 80 82 76
60 59 59 59 59 58 58 58 58 57 55 54 76 90 94 101 100 94 83 70 86 94 94 93 83 88 82 86 85 86 86 90 88 91 93 86 76 91 93 94 94 89 92 78 80 65 63
60 59 59 59 59 58 59 58 58 56 55 55 76 86 98 103 101 88 78 84 91 95 94 90 88 86 86 84 87 84 85 88 90 90 92 89 83 82 90 85 84 85 82 84 85 79 68
59 59 59 59 59 59 59 58 57 55 53 55 87 83 100 103 83 87 83 90 72 92 95 93 92 91 89 88 85 85 83 84 91 91 83 89 83 75 81 92 95 92 86 86 75 70 77
59 59 59 59 59 59 59 58 57 55 54 74 83 92 101 100 79 84 90 89 91 91 91 90 89 91 92 86 79 86 87 89 90 88 79 84 80 71 76 86 91 86 88 88 86 84 73
59 59 59 59 59 59 59 58 57 56 55 68 84 84 91 93 92 87 87 86 85 92 91 92 90 91 87 84 88 82 84 88 89 87 75 81 80 75 69 74 82 78 82 85 83 74 74
59 59 59 59 59 59 59 58 57 56 56 71 88 84 93 82 86 89 90 88 85 83 90 90 86 86 85 79 82 82 86 87 89 73 83 82 73 78 80 81 82 80 79 81 78 79 72
59 59 59 59 59 59 59 58 58 56 55 82 82 82 86 88 88 87 76 84 84 87 85 84 83 87 85 79 82 79 83 82 81 85 82 86 73 76 73 80 80 77 81 81 80 80 79
59 59 59 59 59 59 59 59 58 56 61 86 85 88 85 76 87 85 85 85 84 87 86 88 86 84 82 81 87 87 88 88 87 82 80 78 75 71 65 76 77 70 78 78 80 82 79
59 59 59 59 59 59 59 59 58 57 57 73 83 81 80 80 86 84 85 86 83 83 80 87 86 82 83 91 91 90 89 87 87 85 87 77 74 72 66 71 58 77 85 81 77 79 81
58 58 59 59 59 59 59 59 59 58 57 72 84 79 79 77 86 84 83 84 84 82 81 84 87 87 90 86 78 74 76 77 80 83 83 84 76 69 64 65 72 77 76 75 72 71 79
58 58 58 58 59 59 59 60 59 58 57 72 83 81 79 77 80 83 82 82 79 81 82 83 88 90 87 81 76 65 65 73 71 75 83 82 80 70 66 59 56 70 77 81 79 64 76
58 58 58 58 58 59 59 60 60 59 57 63 79 82 80 76 85 83 79 77 84 82 80 82 82 82 87 76 72 70 70 76 68 68 70 70 69 65 66 63 69 74 76 80 60 62 76
57 58 58 58 58 59 59 59 59 59 58 62 77 84 76 75 83 84 86 80 82 82 76 79 80 81 79 72 72 73 73 74 71 73 70 67 65 65 67 61 58 76 75 65 71 77 77
56 56 57 58 58 58 59 59 59 58 58 59 76 85 84 75 80 88 88 88 85 84 81 83 80 78 80 74 76 76 71 75 71 63 74 63 70 66 66 64 74 79 76 79 78 75 76
MSLP
1020.09 1019.77 1019.45 1019.09 1018.72 1018.42 1018.13 1017.79 1017.45 1017.15 1016.85 1016.60 1016.32 1016.03 1015.66 1015.31 1014.97 1014.63 1014.36 1014.06 1013.76 1013.43 1013.00 1012.58 1012.23 1011.81 1010.26 1008.19 1005.19 1004.93 1005.34 1005.48 1005.31 1005.12 1004.23 1002.56 1001.47 1000.65 1000.17 1000.01 1000.16 1000.81 1001.20 1001.17 1001.35 1001.45 1001.57
1020.26 1019.92 1019.56 1019.18 1018.82 1018.45 1018.14 1017.82 1017.44 1017.10 1016.84 1016.57 1016.24 1015.89 1015.52 1015.16 1014.85 1014.48 1014.20 1013.94 1013.61 1013.25 1012.89 1012.43 1012.10 1011.80 1010.22 1006.53 1004.07 1004.00 1004.31 1004.74 1004.42 1004.17 1003.44 1002.51 1001.74 1001.55 1000.92 1000.36 1000.47 1000.82 1001.01 1000.85 1000.86 1000.89 1000.88
1020.41 1020.02 1019.65 1019.27 1018.90 1018.52 1018.13 1017.77 1017.41 1017.01 1016.72 1016.44 1016.09 1015.72 1015.38 1015.03 1014.70 1014.36 1014.01 1013.75 1013.42 1013.02 1012.66 1012.30 1012.10 1011.41 1008.48 1005.13 1003.89 1003.77 1003.96 1003.92 1003.77 1003.43 1002.80 1002.19 1002.30 1001.96 1001.30 1000.46 1000.68 1000.59 1000.46 1000.56 1000.84 1000.82 1000.61
1020.49 1020.06 1019.68 1019.26 1018.92 1018.54 1018.07 1017.66 1017.31 1016.92 1016.56 1016.28 1015.93 1015.54 1015.17 1014.86 1014.52 1014.21 1013.84 1013.50 1013.15 1012.71 1012.33 1012.01 1011.96 1010.75 1006.53 1003.98 1003.76 1003.86 1003.59 1003.39 1003.51 1003.23 1003.13 1002.75 1002.84 1002.45 1001.76 1000.96 1000.66 1000.45 1000.09 1000.11 1000.59 1000.67 1000.63
1020.60 1020.12 1019.70 1019.24 1018.84 1018.52 1018.05 1017.58 1017.18 1016.79 1016.40 1016.01 1015.69 1015.35 1015.01 1014.70 1014.36 1014.03 1013.63 1013.23 1012.71 1012.29 1011.98 1011.77 1011.13 1009.30 1005.05 1004.39 1003.95 1003.68 1003.36 1003.05 1003.12 1003.20 1003.09 1003.12 1003.27 1002.45 1001.30 1000.66 1000.12 999.72 999.53 999.97 999.95 1000.27 1000.51
1020.72 1020.22 1019.75 1019.27 1018.77 1018.40 1017.98 1017.49 1017.06 1016.64 1016.19 1015.80 1015.42 1015.07 1014.79 1014.50 1014.22 1013.88 1013.35 1012.93 1011.91 1011.95 1011.29 1010.33 1009.32 1007.82 1004.51 1002.98 1002.86 1003.08 1003.03 1002.83 1002.65 1002.74 1002.82 1002.91 1002.71 1001.87 1000.92 999.97 999.71 999.53 999.34 999.33 999.67 999.90 1000.23
1020.78 1020.27 1019.78 1019.26 1018.72 1018.28 1017.82 1017.41 1016.91 1016.43 1016.01 1015.57 1015.19 1014.83 1014.55 1014.31 1014.10 1013.89 1012.90 1011.63 1011.42 1010.27 1008.78 1006.15 1004.94 1003.83 1002.63 1002.38 1002.55 1002.67 1002.86 1002.99 1002.72 1002.53 1002.22 1001.94 1001.77 1000.71 999.68 999.30 999.43 1000.02 1000.02 999.89 999.73 999.58 1000.03
1020.86 1020.33 1019.78 1019.22 1018.68 1018.18 1017.70 1017.24 1016.76 1016.26 1015.79 1015.35 1014.97 1014.64 1014.36 1014.15 1014.01 1013.88 1013.55 1009.75 1006.29 1005.67 1005.05 1004.76 1003.91 1002.90 1002.50 1002.48 1002.36 1002.36 1002.61 1002.78 1002.40 1001.95 1001.63 1001.30 1000.60 1000.05 999.68 999.50 999.95 1000.16 999.98 999.74 999.30 999.34 999.49
1020.88 1020.37 1019.80 1019.17 1018.58 1018.12 1017.63 1017.09 1016.57 1016.05 1015.53 1015.07 1014.74 1014.44 1014.20 1014.04 1013.88 1013.54 1010.67 1007.58 1005.93 1005.34 1004.02 1002.56 1002.70 1002.36 1002.28 1002.35 1001.43 1001.43 1002.33 1002.24 1001.65 1001.39 1000.98 1000.25 999.93 999.68 999.96 999.95 999.99 999.89 999.69 999.40 999.20 999.39 998.97
1020.92 1020.40 1019.79 1019.16 1018.58 1018.01 1017.43 1016.88 1016.33 1015.77 1015.22 1014.79 1014.48 1014.25 1014.03 1013.96 1014.05 1009.69 1008.55 1006.84 1006.30 1005.55 1003.62 1001.48 1001.60 1001.32 1001.44 1001.75 1000.97 1000.58 1001.58 1001.86 1001.41 1000.99 1000.38 1000.00 999.76 999.59 999.98 999.91 999.79 999.07 998.69 998.94 999.47 999.64 998.78
1020.98 1020.41 1019.77 1019.08 1018.48 1017.89 1017.25 1016.62 1016.02 1015.44 1014.85 1014.44 1014.14 1013.93 1013.84 1014.15 1012.00 1007.90 1005.77 1005.70 1005.57 1005.29 1002.14 1000.93 1000.72 1000.54 1000.91 1001.14 1000.47 1000.95 1001.24 1001.58 1001.10 1000.40 1000.61 999.40 999.51 999.61 999.80 999.43 999.26 999.20 999.05 999.40 999.34 999.34 998.67
1021.05 1020.49 1019.81 1019.08 1018.39 1017.71 1017.02 1016.36 1015.68 1015.07 1014.50 1014.03 1013.74 1013.58 1013.65 1013.05 1011.58 1007.74 1005.88 1005.72 1005.59 1004.19 1000.29 999.75 1000.11 1000.52 1000.65 1000.82 1000.20 1000.82 1001.34 1001.46 1000.90 1000.43 1000.17 999.77 999.52 999.42 999.25 999.10 999.48 999.50 999.37 999.13 998.94 998.78 998.25
1021.14 1020.52 1019.84 1019.05 1018.31 1017.58 1016.82 1016.08 1015.35 1014.66 1014.08 1013.54 1013.22 1013.18 1013.28 1010.53 1007.27 1005.91 1005.85 1005.42 1004.04 1001.45 998.99 999.08 999.52 999.92 1000.00 1000.08 999.94 1000.58 1001.01 1001.12 1000.34 999.91 999.13 998.90 998.74 998.96 999.28 999.27 999.02 999.36 999.08 998.20 997.97 997.53 998.30
1021.17 1020.53 1019.83 1019.08 1018.30 1017.47 1016.66 1015.83 1015.01 1014.31 1013.64 1013.09 1012.63 1012.65 1011.24 1009.62 1007.94 1006.62 1005.84 1004.80 1002.23 999.16 997.62 997.90 998.37 999.32 999.26 999.17 999.44 1000.06 1000.17 1000.03 999.93 999.48 998.44 997.66 997.92 997.99 998.43 998.82 998.45 998.42 998.36 997.94 997.37 997.46 997.27
1021.25 1020.60 1019.85 1019.11 1018.27 1017.39 1016.48 1015.57 1014.69 1013.96 1013.35 1012.85 1012.67 1011.47 1009.32 1007.36 1007.92 1006.66 1005.25 1003.09 1000.17 998.08 997.32 997.62 998.02 998.39 998.34 998.50 998.79 999.17 999.37 998.75 998.94 999.35 999.48 998.44 997.79 998.34 998.60 998.51 998.57 998.06 998.01 997.72 997.52 997.03 996.98
1021.28 1020.59 1019.95 1019.16 1018.27 1017.29 1016.29 1015.38 1014.50 1013.68 1013.09 1012.78 1011.33 1008.30 1006.05 1005.70 1006.42 1006.05 1004.53 1001.83 999.73 998.58 998.26 997.91 997.63 997.81 997.49 997.93 998.74 998.79 998.74 999.13 999.60 1000.37 1000.47 999.61 999.10 997.99 998.09 998.69 998.57 998.46 998.27 998.23 997.82 997.86 997.77
1021.37 1020.75 1020.07 1019.24 1018.35 1017.38 1016.43 1015.47 1014.48 1013.52 1012.76 1012.43 1010.96 1006.58 1004.74 1005.17 1005.49 1004.90 1002.87 1000.78 999.18 999.22 999.35 998.56 997.73 997.73 997.60 998.30 998.19 998.69 998.80 1000.01 1000.47 1000.58 1000.96 1000.76 1000.15 999.21 998.21 998.30 997.92 997.84 998.39 998.35 998.25 998.45 998.27
1021.49 1020.83 1020.15 1019.32 1018.43 1017.48 1016.46 1015.48 1014.55 1013.57 1012.52 1012.29 1008.83 1005.04 1004.45 1004.66 1004.58 1003.29 1001.82 1000.28 1000.10 999.36 999.65 999.09 998.71 997.83 997.73 998.13 998.55 998.93 999.31 1000.66 1001.67 1001.86 1001.82 1001.51 1001.01 1000.08 999.15 998.29 997.90 997.64 997.91 998.32 998.62 999.09 998.98
1021.66 1020.96 1020.27 1019.47 1018.52 1017.52 1016.46 1015.41 1014.62 1013.83 1013.23 1011.74 1007.72 1004.23 1004.17 1004.10 1002.88 1001.67 1000.83 1000.38 1000.39 999.87 999.70 999.44 999.22 999.24 999.18 999.29 999.74 999.84 1000.17 1001.86 1002.42 1002.72 1003.75 1003.35 1001.88 1000.90 999.73 998.47 998.39 998.10 998.13 998.47 999.02 998.98 999.54
1021.88 1021.16 1020.41 1019.55 1018.62 1017.60 1016.49 1015.30 1014.38 1013.75 1013.17 1012.46 1007.94 1003.77 1003.69 1003.74 1002.92 1001.71 1000.21 1000.47 1000.63 1000.83 1000.10 1000.23 1000.10 1000.35 1000.37 1000.42 1000.57 1001.02 1000.98 1001.83 1003.03 1003.64 1004.67 1004.64 1003.44 1002.59 1001.47 1000.22 1000.15 999.83 999.60 999.83 1000.05 1000.11 1000.17
1022.01 1021.32 1020.60 1019.75 1018.80 1017.81 1016.73 1015.52 1014.20 1012.92 1012.15 1011.78 1007.32 1003.85 1002.27 1002.48 1002.08 1001.13 1000.45 1000.27 1000.28 1000.75 1001.30 1001.40 1001.22 1001.40 1001.12 1001.15 1000.94 1001.13 1001.52 1001.91 1002.65 1004.17 1004.49 1004.57 1003.69 1003.13 1002.45 1001.96 1001.43 1001.12 1000.91 1000.79 1000.83 1000.98 1001.15
1022.10 1021.46 1020.76 1020.03 1019.20 1018.25 1017.22 1016.03 1014.53 1012.80 1011.14 1010.05 1007.87 1006.10 1004.67 1002.76 1002.36 1001.81 1001.35 1001.27 1000.96 1000.78 1001.54 1001.62 1001.93 1001.81 1002.30 1002.62 1002.46 1002.33 1002.53 1002.87 1003.30 1003.74 1004.14 1004.04 1003.90 1003.83 1003.32 1002.82 1002.13 1001.40 1000.98 1001.05 1001.26 1001.41 1001.63
1022.23 1021.60 1020.94 1020.27 1019.54 1018.76 1017.88 1016.91 1015.86 1014.65 1011.85 1010.15 1009.99 1008.10 1006.51 1004.34 1002.70 1002.25 1001.62 1001.65 1001.92 1002.15 1002.85 1003.07 1003.12 1003.14 1003.27 1004.02 1003.81 1003.93 1004.15 1003.89 1003.74 1003.87 1004.18 1004.49 1004.59 1004.48 1003.80 1003.33 1002.49 1001.88 1001.30 1001.44 1001.54 1001.78 1002.38
1022.31 1021.79 1021.20 1020.53 1019.83 1019.13 1018.36 1017.56 1016.74 1016.03 1015.95 1014.03 1011.38 1009.94 1007.46 1004.74 1003.48 1002.93 1002.91 1002.86 1003.29 1003.75 1003.92 1003.66 1004.40 1004.31 1005.19 1005.14 1004.80 1004.47 1004.14 1003.96 1003.87 1003.93 1004.18 1004.38 1004.85 1005.12 1004.70 1004.17 1003.22 1001.96 1002.18 1002.88 1003.39 1003.54 1004.00
1022.39 1021.86 1021.37 1020.83 1020.21 1019.49 1018.74 1018.05 1017.34 1016.54 1015.96 1014.42 1012.05 1010.98 1008.89 1006.49 1004.44 1004.11 1004.20 1004.16 1004.51 1005.03 1005.16 1004.70 1004.75 1005.47 1005.71 1005.45 1005.00 1004.31 1003.71 1003.60 1003.41 1003.81 1004.23 1004.49 1004.80 1005.12 1005.02 1004.41 1003.65 1002.98 1003.96 1004.31 1004.58 1005.01 1005.35
1022.54 1022.00 1021.50 1021.00 1020.44 1019.86 1019.19 1018.48 1017.74 1017.03 1016.34 1014.30 1012.44 1012.20 1010.66 1008.22 1006.42 1006.29 1005.60 1005.46 1005.29 1004.61 1004.79 1005.20 1005.66 1006.22 1006.15 1005.54 1004.86 1004.38 1003.66 1002.98 1003.05 1003.74 1004.32 1004.99 1005.21 1006.22 1005.95 1005.62 1004.95 1004.96 1005.47 1005.94 1006.07 1006.27 1006.99
1022.61 1022.17 1021.67 1021.15 1020.62 1020.08 1019.52 1018.91 1018.27 1017.56 1016.86 1016.12 1013.29 1012.47 1011.11 1009.22 1007.58 1007.50 1006.68 1006.73 1006.21 1005.96 1005.41 1005.48 1005.80 1005.98 1006.02 1005.58 1004.86 1004.18 1003.58 1003.80 1003.77 1004.09 1004.52 1005.21 1005.88 1006.17 1005.92 1005.81 1005.62 1006.41 1006.90 1006.88 1007.14 1008.02 1007.98
1022.67 1022.26 1021.80 1021.31 1020.79 1020.25 1019.77 1019.26 1018.71 1018.08 1017.43 1016.67 1013.78 1012.56 1012.46 1010.56 1008.55 1008.47 1007.90 1007.61 1007.14 1006.99 1006.43 1006.66 1006.42 1005.98 1005.96 1005.64 1005.21 1004.42 1003.90 1004.21 1004.69 1005.10 1005.32 1005.71 1006.10 1006.13 1006.17 1006.35 1006.78 1007.54 1007.48 1007.76 1008.19 1008.26 1008.46
1022.68 1022.27 1021.81 1021.35 1020.88 1020.42 1019.95 1019.50 1019.04 1018.53 1017.94 1017.27 1014.10 1012.76 1012.76 1012.03 1009.50 1009.08 1008.79 1008.75 1008.75 1008.48 1007.93 1007.11 1006.93 1006.98 1006.81 1006.64 1005.99 1005.81 1005.49 1005.40 1005.56 1005.78 1006.42 1006.69 1006.84 1007.27 1007.66 1007.41 1007.72 1007.63 1007.91 1008.14 1008.73 1009.01 1008.94
Wind_Speed
15 15 15 14 14 14 14 14 14 13 13 13 13 13 13 13 13 13 13 13 14 14 15 16 16 16 11 9 14 10 8 5 8 10 13 15 12 8 13 5 1 5 3 2 2 4 1
16 15 15 14 14 14 14 14 14 14 14 14 13 13 13 13 14 14 14 14 14 15 15 16 15 18 8 14 6 8 10 7 12 11 14 11 12 9 9 5 6 3 2 1 2 4 4
16 16 15 15 15 15 15 15 14 14 14 14 14 14 14 14 14 14 15 15 16 16 16 15 13 8 11 15 3 3 7 10 12 10 15 9 7 12 13 12 5 5 11 8 4 4 3
16 16 16 15 15 15 16 15 15 15 15 15 15 14 15 14 14 15 15 16 17 17 16 15 10 9 9 11 3 6 9 9 6 9 10 9 8 13 13 9 10 11 8 7 7 1 2
16 16 16 15 15 15 15 16 15 16 15 15 15 15 14 14 14 14 15 16 19 16 12 11 7 9 13 3 9 12 11 11 10 10 9 7 9 14 16 14 13 13 6 9 2 6 3
17 16 16 16 16 16 15 15 16 16 16 15 15 13 14 13 13 13 16 16 8 13 7 9 11 10 10 11 11 12 11 11 5 8 9 10 10 13 13 12 7 4 11 5 2 2 2
17 17 18 18 17 16 16 16 16 16 17 14 15 12 12 12 11 11 14 5 6 7 13 10 13 12 7 7 6 8 10 8 10 8 10 14 11 13 16 14 11 8 8 8 9 3 3
18 18 18 18 17 17 17 17 17 16 16 15 13 11 11 10 9 8 8 8 12 10 8 21 17 8 7 7 8 10 11 10 12 12 12 11 12 12 14 9 7 8 9 10 13 2 8
18 18 18 18 18 18 18 18 17 16 15 14 12 11 9 8 7 6 12 16 9 11 8 17 16 13 9 8 12 13 13 12 13 10 13 15 9 7 8 9 8 11 11 12 11 9 17
18 18 18 19 19 19 19 18 17 18 16 14 12 10 8 5 3 9 10 17 13 8 7 15 13 9 12 10 9 1 12 13 8 10 13 10 13 9 4 10 11 14 4 3 5 9 10
18 19 19 20 20 20 19 19 19 19 16 13 12 10 7 10 13 9 6 3 6 5 8 13 13 10 10 14 11 11 7 12 13 10 6 9 6 7 7 12 5 11 5 9 11 10 16
19 19 20 20 21 21 21 20 20 19 18 16 12 8 5 7 7 15 5 2 7 8 5 9 10 10 15 14 9 8 8 10 12 9 8 15 4 5 11 4 5 8 12 14 15 14 11
18 19 20 21 21 21 22 21 21 20 19 17 11 9 8 9 3 6 5 6 7 10 12 13 11 14 14 12 11 8 10 11 11 11 13 17 15 13 7 9 8 7 12 11 7 10 5
18 19 21 21 22 23 23 23 22 21 19 14 9 8 15 9 12 7 6 7 9 16 14 8 13 13 15 10 13 13 14 13 14 10 12 8 11 10 13 9 12 14 12 10 15 2 9
18 19 21 22 23 23 24 24 23 22 19 13 2 6 6 9 13 9 8 11 11 9 2 4 10 13 14 13 4 9 10 9 6 12 10 13 7 7 2 5 13 3 7 11 14 11 9
18 20 21 22 23 24 25 25 25 23 19 11 5 9 9 12 12 8 8 16 18 7 11 10 9 10 13 13 8 7 12 6 3 3 8 13 8 8 11 1 9 12 14 9 8 7 12
18 19 20 21 23 24 25 25 25 24 20 8 6 8 9 10 7 7 10 18 9 4 6 9 13 8 4 10 10 4 9 7 3 5 4 12 12 15 9 8 13 9 11 10 11 11 12
18 19 20 22 23 24 25 25 25 24 22 2 7 5 10 10 8 8 12 16 3 4 6 12 8 9 5 3 1 7 8 13 9 9 10 15 9 11 17 19 16 10 11 10 9 13 14
18 19 22 22 23 24 26 26 24 21 17 7 7 3 8 9 8 11 16 4 3 7 6 4 6 6 7 7 3 10 5 10 7 8 9 12 6 8 10 14 7 10 11 6 13 9 11
18 18 20 22 24 25 27 28 27 22 13 5 7 4 6 8 12 16 11 7 7 3 6 6 7 5 4 8 6 7 4 8 6 6 6 5 10 12 12 18 15 15 15 13 13 11 14
17 18 19 21 24 25 27 29 30 31 25 5 6 8 4 9 13 14 10 6 10 7 8 4 4 9 9 5 7 5 9 3 7 10 2 5 10 12 14 16 17 16 16 15 15 15 16
17 18 19 20 22 24 26 29 33 36 33 5 7 7 11 11 2 7 1 2 9 4 3 4 6 10 4 6 9 10 11 3 7 9 1 7 9 11 13 15 16 18 15 12 14 14 15
17 18 19 20 21 23 24 26 28 31 29 7 9 8 8 7 10 9 3 5 2 8 6 6 10 7 5 11 11 9 11 12 11 8 8 9 9 10 13 14 16 11 11 6 8 6 10
17 17 18 19 20 22 23 24 25 26 21 7 8 7 7 10 4 7 10 7 5 9 7 4 3 6 8 8 9 11 14 13 12 9 9 9 9 8 11 12 12 3 1 3 8 7 8
18 19 19 18 19 20 22 22 23 25 24 6 7 6 6 9 11 5 3 4 2 2 7 6 7 6 7 7 7 10 10 10 13 8 8 8 5 8 9 11 12 14 13 9 6 9 13
18 18 19 19 18 19 20 21 22 23 24 11 6 8 6 7 9 10 8 2 9 7 8 7 6 5 7 7 7 10 8 8 3 7 7 6 5 4 9 11 9 8 10 7 7 7 11
17 18 18 18 18 19 19 20 21 22 23 10 6 11 6 8 7 8 8 10 9 7 7 2 2 5 6 6 8 9 10 4 4 7 5 7 6 9 10 11 9 10 8 6 7 6 8
16 17 16 17 17 17 18 19 19 21 22 13 8 8 7 7 6 7 7 8 6 4 8 7 6 6 6 6 7 8 5 2 3 5 8 6 6 8 8 11 10 8 8 3 7 8 11
16 17 15 14 15 16 16 17 17 18 20 17 7 8 7 5 9 8 7 4 4 7 7 6 5 4 6 6 5 4 7 3 6 7 5 4 5 6 5 9 11 7 4 3 9 8 9
Wind_Direction
9 5 2 359 356 355 351 348 344 341 340 339 334 330 325 324 322 320 319 317 315 313 311 311 315 321 316 237 252 130 170 177 225 240 267 288 288 315 318 345 135 62 75 236 141 143 58
7 3 360 357 355 353 350 347 343 340 341 336 332 327 324 320 319 317 316 314 311 308 306 307 314 316 248 256 80 149 204 176 241 222 256 261 309 1 300 323 325 60 291 40 4 34 168
3 0 358 356 354 352 348 346 343 341 337 333 329 324 321 317 315 314 314 311 307 303 300 299 308 299 264 250 7 268 221 221 217 239 257 263 309 300 311 282 88 287 248 191 83 21 353
359 358 356 354 353 350 346 344 343 339 335 331 326 322 318 315 312 311 309 306 302 296 293 288 289 269 261 223 324 226 231 224 249 252 280 328 314 287 284 302 248 233 258 201 132 337 353
359 355 353 353 352 347 344 341 341 338 334 330 325 320 315 312 309 307 303 301 296 289 270 278 252 227 259 117 218 234 226 224 204 231 244 282 277 274 279 243 249 224 175 267 120 144 295
358 354 352 351 349 345 343 341 338 337 333 328 322 314 313 309 308 308 304 289 289 301 224 234 260 263 260 232 183 199 202 252 219 223 228 232 240 248 234 246 256 161 316 83 324 98 348
356 353 351 349 346 344 342 340 337 336 332 323 321 311 307 306 304 310 312 204 203 198 234 234 161 239 132 78 134 205 198 213 243 249 239 213 234 238 248 240 17 6 306 293 290 73 298
352 350 348 345 345 343 340 338 338 332 328 321 316 309 305 302 302 311 281 252 11 331 266 219 266 247 301 165 179 194 185 220 220 244 206 253 225 251 279 326 343 295 283 264 265 142 298
353 348 345 343 343 342 338 336 335 331 325 318 313 308 302 303 315 258 234 244 342 320 264 176 211 220 192 220 227 178 190 222 254 228 254 247 307 44 305 304 281 253 259 281 312 346 282
350 346 345 342 341 339 337 335 333 334 328 320 313 306 294 298 297 215 215 236 251 283 276 153 195 217 185 222 237 150 175 232 234 268 245 265 256 259 231 256 258 261 319 227 317 268 293
351 347 345 342 341 338 336 334 330 331 328 320 313 301 270 235 322 234 60 216 219 243 273 149 149 123 180 218 132 187 176 222 269 231 270 237 229 239 244 260 247 272 18 298 284 280 266
349 345 343 340 340 338 336 334 331 330 333 324 313 284 239 201 227 264 293 154 224 234 258 147 142 192 197 216 230 126 185 250 256 280 228 273 290 228 242 233 242 279 293 278 246 243 270
349 344 341 340 339 337 335 335 333 333 333 325 305 254 223 316 275 187 236 221 224 251 124 148 173 165 189 190 200 162 192 208 239 214 222 213 222 214 212 252 239 239 257 269 234 271 216
350 343 342 340 339 337 336 336 335 335 333 327 313 189 213 258 310 268 232 226 254 238 227 130 160 169 209 171 163 190 186 222 218 268 280 269 171 195 172 228 268 220 262 291 293 330 219
344 343 342 341 339 337 337 338 338 338 337 335 332 193 239 220 226 267 234 228 236 312 342 136 176 184 218 165 274 199 229 255 88 23 345 318 114 125 245 217 247 299 239 315 314 301 288
345 345 343 341 340 339 339 339 339 340 339 333 265 212 181 150 184 227 242 253 286 27 342 314 204 216 211 186 186 194 199 88 46 38 320 312 294 243 154 246 273 271 305 315 300 305 293
344 345 343 342 342 340 339 340 342 342 339 341 241 235 127 169 190 232 237 233 247 86 279 279 279 246 163 237 180 276 116 112 77 1 342 304 305 298 281 197 250 216 233 262 284 318 313
344 345 346 343 343 341 341 343 345 345 336 258 273 273 144 171 213 232 235 259 20 290 215 274 297 327 272 173 218 231 77 58 41 4 313 330 316 304 303 311 312 286 272 288 294 306 295
344 345 349 345 344 343 343 344 348 349 351 314 268 130 161 204 230 216 230 298 272 256 228 236 261 321 5 360 332 320 20 101 56 9 29 357 300 308 286 252 293 266 271 268 297 271 294
344 345 348 346 345 346 345 344 346 349 340 280 279 159 154 210 266 282 258 223 197 267 357 336 346 344 288 277 217 281 290 134 95 69 28 317 276 269 282 311 335 322 319 317 308 297 303
345 345 346 347 347 348 348 347 346 346 345 226 253 304 90 186 221 255 318 224 216 164 241 279 218 278 320 308 308 270 244 184 174 139 227 244 276 292 308 315 314 304 297 293 282 284 281
345 346 347 348 349 350 351 351 350 350 344 255 339 351 336 310 95 336 200 277 268 237 105 302 216 294 17 290 298 332 358 332 284 195 210 270 292 299 281 284 277 276 279 294 288 284 281
346 346 347 348 350 352 352 353 355 0 345 7 1 328 298 296 273 210 298 227 251 29 67 333 346 343 293 25 5 3 319 302 292 275 269 287 300 302 288 305 305 288 281 316 342 351 3
348 348 348 348 350 351 352 354 355 359 9 294 6 303 274 292 266 19 1 14 353 37 320 73 346 304 48 325 310 280 260 259 265 268 281 277 260 272 279 276 265 286 99 50 340 318 346
347 347 348 348 349 350 351 353 354 353 358 308 6 345 325 308 348 351 270 296 56 168 254 288 8 29 316 295 280 249 245 231 237 250 247 295 284 283 281 272 280 297 48 30 38 338 12
343 344 345 346 347 348 350 352 352 353 357 326 26 348 307 301 51 353 329 338 294 260 165 227 94 314 302 273 263 253 269 323 127 181 187 286 279 243 287 300 292 48 73 30 331 258 28
339 341 342 343 344 345 348 351 352 350 352 331 313 10 299 296 61 352 10 339 358 322 304 135 154 278 211 265 261 262 266 12 279 273 241 214 221 266 268 277 282 53 25 319 256 16 339
340 336 337 339 340 341 344 347 349 348 350 349 303 35 355 320 338 359 336 323 318 272 290 61 259 188 269 253 269 277 284 21 327 294 293 275 278 282 291 282 278 44 309 337 358 326 348
329 329 330 331 336 336 339 342 345 345 347 344 298 356 336 265 325 319 296 341 308 338 325 335 343 291 9 316 347 325 306 282 272 274 108 255 273 308 330 328 331 346 305 317 4 322 332